Location: Campo Alegre
(10.1673°N, 67.4431°W)
Time: 13:11:35
(UTC+00:00)

YAOGAN 11 - Pass Details

Date: 14 April 2024
Orbit: 606 x 659 km, 98.4° (Epoch: 27 May)

Event Time Altitude Azimuth Distance (km) Brightness Sun altitude
Rises 09:40:37 0° 174° (S) 2,907 7.4 -10.2°
Reaches altitude 10° 09:42:49 10° 177° (S) 2,008 6.6 -9.7°
Maximum altitude 09:47:08 62° 258° (WSW) 718 4.1 -8.7°
Drops below altitude 10° 09:51:32 10° 339° (NNW) 2,039 6.6 -7.6°
Sets 09:53:46 0° 343° (NNW) 2,956 7.5 -7.1°
